When you browse on this site, cookies collect data to enhance your experience and personalize the content and advertising you see.
Visit our Privacy Policy to learn more. By continuing to use the site, you agree to this use of cookies and data.
  • In Spain
  • List of Countries
  • For 7 days
  • Water Temperature
  • Weather Map
  • Weather Widgets
  • user-avatar
    Login

    Hourly Weather Malanje

    Today, 7 December, Saturday

    Time Temperature Precipitation Wind Pressure Humidity
    00:00 +20°C° 0 mm 2 mps 664 mmHg 98%
    01:00 +20°C° 0 mm 2 mps 664 mmHg 98%
    02:00 +19°C° 0 mm 2 mps 664 mmHg 98%
    03:00 +19°C° 0 mm 2 mps 664 mmHg 98%
    04:00 +20°C° 0 mm 1 mps 663 mmHg 98%
    05:00 +20°C° 0 mm 1 mps 664 mmHg 97%
    06:00 +20°C° 0 mm 1 mps 664 mmHg 97%
    07:00 +20°C° 0 mm 1 mps 664 mmHg 96%
    08:00 +20°C° 0 mm 2 mps 665 mmHg 92%
    09:00 +21°C° 0 mm 2 mps 665 mmHg 87%
    10:00 +23°C° 0 mm 2 mps 665 mmHg 82%
    11:00 +25°C° 0 mm 2 mps 665 mmHg 76%
    12:00 +26°C° 0 mm 3 mps 664 mmHg 69%
    13:00 +28°C° 0 mm 3 mps 664 mmHg 63%
    14:00 +27°C° 0 mm 3 mps 664 mmHg 65%
    15:00 +27°C° 0 mm 3 mps 663 mmHg 67%
    16:00 +26°C° 0 mm 3 mps 663 mmHg 69%
    17:00 +25°C° 0 mm 3 mps 663 mmHg 76%
    18:00 +22°C° 0 mm 3 mps 663 mmHg 82%
    19:00 +20°C° 0 mm 2 mps 663 mmHg 89%
    20:00 +20°C° 0 mm 2 mps 664 mmHg 90%
    21:00 +19°C° 0 mm 2 mps 664 mmHg 91%
    22:00 +19°C° 0 mm 2 mps 664 mmHg 92%
    23:00 +19°C° 0 mm 3 mps 664 mmHg 93%

    Tomorrow, 8 December, Sunday

    Time Temperature Precipitation Wind Pressure Humidity
    00:00 +19°C° 0 mm 3 mps 664 mmHg 93%
    01:00 +19°C° 0 mm 3 mps 664 mmHg 94%
    02:00 +19°C° 0 mm 3 mps 664 mmHg 93%
    03:00 +18°C° 0 mm 3 mps 664 mmHg 93%
    04:00 +18°C° 0 mm 3 mps 663 mmHg 92%
    05:00 +18°C° 0 mm 3 mps 664 mmHg 91%
    06:00 +19°C° 0 mm 3 mps 664 mmHg 90%
    07:00 +19°C° 0 mm 3 mps 665 mmHg 89%
    08:00 +20°C° 0 mm 3 mps 665 mmHg 84%
    09:00 +21°C° 0 mm 2 mps 665 mmHg 80%
    10:00 +23°C° 0 mm 2 mps 665 mmHg 75%
    11:00 +25°C° 0 mm 2 mps 665 mmHg 70%
    12:00 +26°C° 0 mm 3 mps 665 mmHg 66%
    13:00 +27°C° 0 mm 3 mps 664 mmHg 61%
    14:00 +27°C° 0 mm 3 mps 664 mmHg 63%
    15:00 +27°C° 0 mm 3 mps 663 mmHg 66%
    16:00 +26°C° 0 mm 3 mps 663 mmHg 68%
    17:00 +24°C° 0 mm 3 mps 663 mmHg 75%
    18:00 +22°C° 0 mm 3 mps 663 mmHg 82%
    19:00 +20°C° 0 mm 2 mps 663 mmHg 89%
    20:00 +19°C° 0 mm 2 mps 664 mmHg 91%
    21:00 +19°C° 0 mm 2 mps 664 mmHg 93%
    22:00 +19°C° 0 mm 1 mps 664 mmHg 94%
    23:00 +19°C° 0 mm 1 mps 664 mmHg 96%

    Day after tomorrow, 9 December, Monday

    Time Temperature Precipitation Wind Pressure Humidity
    00:00 +19°C° 0 mm 1 mps 664 mmHg 97%
    01:00 +18°C° 0 mm 1 mps 663 mmHg 98%
    02:00 +18°C° 0 mm 2 mps 663 mmHg 97%
    03:00 +18°C° 0 mm 2 mps 663 mmHg 96%
    04:00 +18°C° 0 mm 3 mps 663 mmHg 94%
    05:00 +18°C° 0 mm 3 mps 664 mmHg 91%
    06:00 +19°C° 0 mm 3 mps 664 mmHg 89%
    07:00 +19°C° 0 mm 3 mps 664 mmHg 86%
    08:00 +20°C° 0 mm 3 mps 665 mmHg 80%
    09:00 +23°C° 0 mm 2 mps 665 mmHg 74%
    10:00 +24°C° 0 mm 2 mps 665 mmHg 68%
    11:00 +25°C° 0 mm 2 mps 665 mmHg 64%
    12:00 +27°C° 0 mm 3 mps 665 mmHg 60%
    13:00 +28°C° 0 mm 3 mps 664 mmHg 55%
    14:00 +27°C° 0 mm 3 mps 664 mmHg 58%
    15:00 +27°C° 0 mm 3 mps 663 mmHg 61%
    16:00 +26°C° 0 mm 3 mps 663 mmHg 63%
    17:00 +24°C° 0 mm 3 mps 663 mmHg 70%
    18:00 +21°C° 0 mm 2 mps 663 mmHg 77%
    19:00 +19°C° 0 mm 2 mps 663 mmHg 84%
    20:00 +18°C° 0 mm 2 mps 663 mmHg 88%
    21:00 +17°C° 0 mm 2 mps 663 mmHg 91%
    22:00 +17°C° 0 mm 2 mps 664 mmHg 95%
    23:00 +16°C° 0 mm 2 mps 664 mmHg 96%

    10 December, Tuesday

    Time Temperature Precipitation Wind Pressure Humidity
    00:00 +16°C° 0 mm 1 mps 664 mmHg 97%
    01:00 +16°C° 0 mm 1 mps 663 mmHg 98%
    02:00 +15°C° 0 mm 1 mps 663 mmHg 98%
    03:00 +15°C° 0 mm 1 mps 663 mmHg 98%
    04:00 +15°C° 0 mm 1 mps 663 mmHg 98%
    05:00 +16°C° 0 mm 2 mps 663 mmHg 97%
    06:00 +16°C° 0 mm 2 mps 664 mmHg 96%
    07:00 +17°C° 0 mm 2 mps 664 mmHg 94%
    08:00 +19°C° 0 mm 2 mps 665 mmHg 81%
    09:00 +23°C° 0 mm 2 mps 665 mmHg 69%
    10:00 +25°C° 0 mm 2 mps 666 mmHg 56%
    11:00 +26°C° 0 mm 2 mps 666 mmHg 52%
    12:00 +27°C° 0 mm 2 mps 665 mmHg 48%
    13:00 +29°C° 0 mm 2 mps 665 mmHg 44%
    14:00 +28°C° 0 mm 2 mps 664 mmHg 49%
    15:00 +28°C° 0 mm 2 mps 664 mmHg 53%
    16:00 +27°C° 0 mm 2 mps 663 mmHg 58%
    17:00 +25°C° 0 mm 2 mps 663 mmHg 65%
    18:00 +23°C° 0 mm 2 mps 663 mmHg 73%
    19:00 +21°C° 0 mm 1 mps 663 mmHg 81%
    20:00 +20°C° 0 mm 1 mps 663 mmHg 84%
    21:00 +19°C° 0 mm 1 mps 664 mmHg 87%
    22:00 +18°C° 0 mm 1 mps 664 mmHg 90%
    23:00 +18°C° 0 mm 1 mps 664 mmHg 92%

    11 December, Wednesday

    Time Temperature Precipitation Wind Pressure Humidity
    00:00 +16°C° 0 mm 1 mps 664 mmHg 93%
    01:00 +16°C° 0 mm 2 mps 664 mmHg 95%
    02:00 +16°C° 0 mm 2 mps 664 mmHg 95%
    03:00 +16°C° 0 mm 2 mps 663 mmHg 96%
    04:00 +16°C° 0 mm 2 mps 663 mmHg 97%
    05:00 +17°C° 0 mm 2 mps 664 mmHg 95%
    06:00 +17°C° 0 mm 2 mps 664 mmHg 92%
    07:00 +18°C° 0 mm 2 mps 665 mmHg 90%
    08:00 +20°C° 0 mm 2 mps 665 mmHg 80%
    09:00 +23°C° 0 mm 2 mps 666 mmHg 70%
    10:00 +26°C° 0 mm 1 mps 666 mmHg 60%
    11:00 +27°C° 0 mm 1 mps 666 mmHg 55%
    12:00 +28°C° 0 mm 2 mps 665 mmHg 51%
    13:00 +29°C° 0 mm 2 mps 665 mmHg 46%
    14:00 +29°C° 0 mm 2 mps 664 mmHg 49%
    15:00 +28°C° 0 mm 2 mps 664 mmHg 52%
    16:00 +28°C° 0 mm 2 mps 663 mmHg 56%
    17:00 +26°C° 0 mm 2 mps 663 mmHg 63%
    18:00 +23°C° 0 mm 2 mps 663 mmHg 71%
    19:00 +20°C° 0 mm 2 mps 663 mmHg 79%
    20:00 +19°C° 0 mm 2 mps 664 mmHg 80%
    21:00 +19°C° 0 mm 2 mps 664 mmHg 81%
    22:00 +19°C° 0 mm 1 mps 664 mmHg 82%
    23:00 +19°C° 0 mm 1 mps 664 mmHg 83%

    12 December, Thursday

    Time Temperature Precipitation Wind Pressure Humidity
    00:00 +18°C° 0 mm 1 mps 664 mmHg 84%
    01:00 +18°C° 0 mm 1 mps 664 mmHg 85%
    02:00 +18°C° 0 mm 1 mps 664 mmHg 87%
    03:00 +16°C° 0 mm 1 mps 663 mmHg 89%
    04:00 +16°C° 0 mm 1 mps 663 mmHg 90%
    05:00 +18°C° 0 mm 1 mps 664 mmHg 88%
    06:00 +19°C° 0 mm 1 mps 664 mmHg 86%
    07:00 +18°C° 0 mm 0 mps 665 mmHg 83%
    08:00 +20°C° 0 mm 0 mps 666 mmHg 73%
    09:00 +23°C° 0 mm 0 mps 667 mmHg 63%
    10:00 +26°C° 0 mm 0 mps 667 mmHg 53%
    11:00 +27°C° 0 mm 0 mps 667 mmHg 50%
    12:00 +30°C° 0 mm 1 mps 666 mmHg 47%
    13:00 +30°C° 0 mm 1 mps 665 mmHg 44%
    14:00 +30°C° 0 mm 1 mps 665 mmHg 47%
    15:00 +29°C° 0 mm 1 mps 664 mmHg 49%
    16:00 +29°C° 0 mm 1 mps 664 mmHg 51%
    17:00 +26°C° 0 mm 1 mps 664 mmHg 57%
    18:00 +24°C° 0 mm 1 mps 664 mmHg 64%
    19:00 +22°C° 0 mm 1 mps 664 mmHg 70%
    20:00 +21°C° 0 mm 1 mps 664 mmHg 71%
    21:00 +21°C° 0 mm 1 mps 664 mmHg 72%
    22:00 +20°C° 0 mm 1 mps 665 mmHg 72%
    23:00 +20°C° 0 mm 1 mps 665 mmHg 74%
    Show more